Weather History for Chattanooga, TN

Change the Weather History Date:

Tuesday, October 19, 2010

  Actual Average Record
Temperature  
Mean Temperature 64 °F 60 °F  
Max Temperature 83 °F 72 °F 89 °F (1910)
Min Temperature 45 °F 49 °F 27 °F (1948)
Degree Days  
Heating Degree Days 1 6  
Month to date heating degree days 56 69  
Since 1 July heating degree days 58 84  
Cooling Degree Days 0 1  
Month to date cooling degree days 30 40  
Year to date cooling degree days 2380 1729  
Growing Degree Days 14 (Base 50)    
Moisture  
Dew Point 48 °F    
Average Humidity 60    
Maximum Humidity 93    
Minimum Humidity 26    
Precipitation  
Precipitation 0.09 in 0.10 in 2.17 in (2004)
Month to date precipitation 0.09 2.00  
Year to date precipitation 30.26 41.30  
Snow  
Snow 0.00 in 0.00 in - ()
Month to date snowfall 0.0 0.0  
Since 1 July snowfall 0.0 0.0  
Since 1 September snowfall 0.0 0.0  
Snow Depth 0.00 in    
Sea Level Pressure  
Sea Level Pressure 29.92 in    
Wind  
Wind Speed 3 mph (SW)    
Max Wind Speed 16 mph    
Max Gust Speed 24 mph    
Visibility 9 miles    
Events Rain    
T = Trace of Precipitation, MM = Missing Value Source: NWS Daily Summary

Daily Weather History Graph

Daily Weather History Graph

Search for Another Location

Airport:

Trip Planner

Search our weather history database for the weather conditions in past years. The results will help you decide how hot, cold, wet, or windy it might be!

Date:

Astronomy

Oct. 19, 2010 Rise Set
Actual Time 7:50 AM EDT 7:00 PM EDT
Civil Twilight 7:24 AM EDT 7:26 PM EDT
Nautical Twilight 6:55 AM EDT 7:55 PM EDT
Astronomical Twilight 6:25 AM EDT 8:25 PM EDT
Moon 5:04 PM EDT (10/19) 4:41 AM EDT (10/19)
Length of Visible Light 12h 01m
Length of Day
11h 10m
Waxing Gibbous, 89% of the Moon is Illuminated
Oct 19
Waxing Gibbous
Oct 22
Full
Oct 30
Last Quarter
Nov 6
New
Nov 13
First Quarter

Hourly Weather History & Observations

Time (EDT) Temp. Dew Point Humidity Pressure Visibility Wind Dir Wind Speed Gust Speed Precip Events Conditions
12:53 AM 50.0 °F 45.0 °F 83% 29.95 in 10.0 mi Calm Calm - N/A   Clear
1:53 AM 48.0 °F 44.1 °F 86% 29.94 in 10.0 mi Calm Calm - N/A   Clear
2:53 AM 46.9 °F 44.1 °F 90% 29.94 in 10.0 mi Calm Calm - N/A   Clear
3:53 AM 46.9 °F 44.1 °F 90% 29.93 in 10.0 mi Calm Calm - N/A   Clear
4:53 AM 46.9 °F 43.0 °F 86% 29.92 in 10.0 mi Calm Calm - N/A   Clear
5:53 AM 46.0 °F 43.0 °F 89% 29.92 in 10.0 mi Calm Calm - N/A   Clear
6:53 AM 46.0 °F 42.1 °F 86% 29.93 in 10.0 mi Calm Calm - N/A   Partly Cloudy
7:53 AM 46.0 °F 42.1 °F 86% 29.94 in 10.0 mi Calm Calm - N/A   Scattered Clouds
8:53 AM 48.0 °F 44.1 °F 86% 29.96 in 10.0 mi Calm Calm - N/A   Scattered Clouds
9:53 AM 55.9 °F 45.0 °F 67% 29.97 in 10.0 mi Calm Calm - N/A   Mostly Cloudy
10:53 AM 64.0 °F 45.0 °F 50% 29.96 in 10.0 mi SW 3.5 mph - N/A   Mostly Cloudy
11:53 AM 70.0 °F 45.0 °F 41% 29.95 in 10.0 mi South 4.6 mph - N/A   Mostly Cloudy
12:53 PM 77.0 °F 45.0 °F 32% 29.94 in 10.0 mi SSW 6.9 mph - N/A   Mostly Cloudy
1:53 PM 80.1 °F 46.0 °F 30% 29.91 in 10.0 mi Variable 4.6 mph - N/A   Scattered Clouds
3:53 PM 82.0 °F 44.1 °F 26% 29.87 in 10.0 mi West 9.2 mph - N/A   Mostly Cloudy
4:53 PM 81.0 °F 46.0 °F 29% 29.86 in 10.0 mi WSW 9.2 mph - N/A   Mostly Cloudy
5:53 PM 79.0 °F 46.9 °F 32% 29.86 in 10.0 mi WSW 4.6 mph - N/A   Mostly Cloudy
6:53 PM 77.0 °F 48.9 °F 37% 29.86 in 10.0 mi SW 3.5 mph - N/A   Mostly Cloudy
7:53 PM 71.1 °F 50.0 °F 47% 29.86 in 10.0 mi Calm Calm - N/A   Mostly Cloudy
8:53 PM 69.1 °F 52.0 °F 54% 29.88 in 8.0 mi Calm Calm - N/A   Overcast
9:47 PM 64.4 °F 60.8 °F 88% 29.95 in 2.5 mi SW 8.1 mph - 0.04 in Rain Rain
9:53 PM 64.0 °F 60.1 °F 87% 29.94 in 2.5 mi SSW 6.9 mph - 0.04 in Rain Light Rain
10:39 PM 62.6 °F 60.8 °F 94% 29.95 in 4.0 mi Calm Calm - 0.04 in Rain Light Rain
10:53 PM 63.0 °F 59.0 °F 87% 29.94 in 5.0 mi Calm Calm - 0.04 in Rain Light Rain
11:53 PM 63.0 °F 60.1 °F 90% 29.92 in 10.0 mi North 4.6 mph - 0.01 in Rain Light Rain